Location: Ajisawe
(8.4333°N, 4.3833°E)
Time: 23:02:24
(UTC+00:00)

Vanguard 1 Rocket - Pass Details

Date: 19 April 2021
Orbit: 652 x 4224 km, 34.3° (Epoch: 10 May)

Event Time Altitude Azimuth Distance (km) Brightness Sun altitude
Exits shadow 01:13:55 12° 167° (SSE) 7,173 11.7 -59.8°
Drops below altitude 10° 01:15:49 10° 163° (SSE) 7,367 11.8 -59.4°
Sets 01:26:03 0° 145° (SE) 8,443 12.3 -57.5°
